Time,TemperatureF,DewpointF,PressureIn,WindDirection,WindDirectionDegrees,WindSpeedMPH,WindSpeedGustMPH,Humidity,HourlyPrecipIn,Conditions,Clouds,dailyrainin,SoftwareType,DateUTC
2013-04-22 00:00:00,53.0,41.9,30.33,WSW,253,1.0,1.0,66,0.00,,,0.01,Wunderground v.1.15,2013-04-22 04:00:00,
2013-04-22 00:05:00,52.9,42.2,30.33,WSW,252,1.0,1.0,67,0.00,,,0.00,Wunderground v.1.15,2013-04-22 04:05:00,
2013-04-22 00:10:00,52.7,41.7,30.32,West,271,1.0,1.0,66,0.00,,,0.00,Wunderground v.1.15,2013-04-22 04:10:00,
2013-04-22 00:20:00,52.4,41.4,30.32,WNW,298,1.0,1.0,66,0.00,,,0.00,Wunderground v.1.15,2013-04-22 04:20:00,
2013-04-22 00:25:00,52.3,41.7,30.32,NNW,327,1.0,1.0,67,0.00,,,0.00,Wunderground v.1.15,2013-04-22 04:25:00,
2013-04-22 00:30:00,52.2,41.6,30.32,ENE,77,1.0,1.0,67,0.00,,,0.00,Wunderground v.1.15,2013-04-22 04:30:00,
2013-04-22 00:35:00,52.0,41.4,30.32,SE,140,1.0,1.0,67,0.00,,,0.00,Wunderground v.1.15,2013-04-22 04:35:00,
2013-04-22 00:40:00,51.8,40.8,30.32,NNE,15,1.0,1.0,66,0.00,,,0.00,Wunderground v.1.15,2013-04-22 04:40:00,
2013-04-22 00:50:00,51.5,39.7,30.32,SW,216,2.0,2.0,64,0.00,,,0.00,Wunderground v.1.15,2013-04-22 04:50:00,
2013-04-22 01:00:00,51.2,38.6,30.32,West,275,2.0,2.0,62,0.00,,,0.00,Wunderground v.1.15,2013-04-22 05:00:00,
2013-04-22 01:10:00,50.9,38.3,30.31,ENE,69,1.0,1.0,62,0.00,,,0.00,Wunderground v.1.15,2013-04-22 05:10:00,
2013-04-22 01:20:00,50.6,39.3,30.30,ENE,60,1.0,1.0,65,0.00,,,0.00,Wunderground v.1.15,2013-04-22 05:20:00,
2013-04-22 01:30:00,50.2,39.3,30.30,ENE,76,1.0,1.0,66,0.00,,,0.00,Wunderground v.1.15,2013-04-22 05:30:00,
2013-04-22 01:40:00,49.8,39.3,30.30,WNW,295,1.0,2.0,67,0.00,,,0.00,Wunderground v.1.15,2013-04-22 05:40:00,
2013-04-22 01:50:00,49.4,38.5,30.29,ESE,107,1.0,2.0,66,0.00,,,0.00,Wunderground v.1.15,2013-04-22 05:50:00,
2013-04-22 02:00:00,49.2,37.9,30.28,NW,314,1.0,2.0,65,0.00,,,0.00,Wunderground v.1.15,2013-04-22 06:00:00,
2013-04-22 02:05:00,49.0,37.3,30.28,WSW,246,1.0,3.0,64,0.00,,,0.00,Wunderground v.1.15,2013-04-22 06:05:00,
2013-04-22 02:15:00,48.7,36.3,30.27,SE,146,1.0,2.0,62,0.00,,,0.00,Wunderground v.1.15,2013-04-22 06:15:00,
2013-04-22 02:25:00,48.5,35.2,30.27,ENE,75,1.0,1.0,60,0.00,,,0.00,Wunderground v.1.15,2013-04-22 06:25:00,
2013-04-22 02:30:00,48.4,35.1,30.27,East,100,1.0,1.0,60,0.00,,,0.00,Wunderground v.1.15,2013-04-22 06:30:00,
2013-04-22 02:40:00,48.2,35.4,30.27,NE,38,0.0,0.0,61,0.00,,,0.00,Wunderground v.1.15,2013-04-22 06:40:00,
2013-04-22 02:45:00,48.1,35.3,30.27,ENE,71,1.0,1.0,61,0.00,,,0.00,Wunderground v.1.15,2013-04-22 06:45:00,
2013-04-22 02:55:00,47.9,35.1,30.27,SSW,197,1.0,3.0,61,0.00,,,0.00,Wunderground v.1.15,2013-04-22 06:55:00,
2013-04-22 03:05:00,47.8,35.8,30.27,East,90,1.0,1.0,63,0.00,,,0.00,Wunderground v.1.15,2013-04-22 07:05:00,
2013-04-22 03:15:00,47.6,36.4,30.27,ESE,118,1.0,1.0,65,0.00,,,0.00,Wunderground v.1.15,2013-04-22 07:15:00,
2013-04-22 03:20:00,47.4,36.2,30.27,East,93,1.0,1.0,65,0.00,,,0.00,Wunderground v.1.15,2013-04-22 07:20:00,
2013-04-22 03:30:00,47.2,37.5,30.26,NE,40,2.0,2.0,69,0.00,,,0.00,Wunderground v.1.15,2013-04-22 07:30:00,
2013-04-22 03:40:00,47.1,38.2,30.25,ESE,114,2.0,3.0,71,0.00,,,0.00,Wunderground v.1.15,2013-04-22 07:40:00,
2013-04-22 03:50:00,47.1,38.5,30.26,NE,56,2.0,2.0,72,0.00,,,0.00,Wunderground v.1.15,2013-04-22 07:50:00,
2013-04-22 04:00:00,47.2,39.3,30.26,ESE,105,1.0,1.0,74,0.00,,,0.00,Wunderground v.1.15,2013-04-22 08:00:00,
2013-04-22 04:10:00,47.3,40.1,30.26,NNE,29,2.0,2.0,76,0.00,,,0.00,Wunderground v.1.15,2013-04-22 08:10:00,
2013-04-22 04:15:00,47.3,40.1,30.25,East,99,1.0,3.0,76,0.00,,,0.00,Wunderground v.1.15,2013-04-22 08:15:00,
2013-04-22 04:25:00,47.1,39.9,30.25,WNW,282,1.0,3.0,76,0.00,,,0.00,Wunderground v.1.15,2013-04-22 08:25:00,
2013-04-22 04:30:00,47.0,40.2,30.25,West,262,1.0,1.0,77,0.00,,,0.00,Wunderground v.1.15,2013-04-22 08:30:00,
2013-04-22 04:35:00,47.0,40.2,30.25,WNW,302,1.0,2.0,77,0.00,,,0.00,Wunderground v.1.15,2013-04-22 08:35:00,
2013-04-22 04:45:00,46.8,40.3,30.25,NW,317,1.0,1.0,78,0.00,,,0.00,Wunderground v.1.15,2013-04-22 08:45:00,
2013-04-22 04:50:00,46.7,40.2,30.24,SSW,212,1.0,1.0,78,0.00,,,0.00,Wunderground v.1.15,2013-04-22 08:50:00,
2013-04-22 05:00:00,46.4,40.2,30.24,NNW,338,1.0,1.0,79,0.00,,,0.00,Wunderground v.1.15,2013-04-22 09:00:00,
2013-04-22 05:05:00,46.3,40.5,30.24,SSW,212,1.0,1.0,80,0.00,,,0.00,Wunderground v.1.15,2013-04-22 09:05:00,
2013-04-22 05:15:00,46.1,40.3,30.25,ESE,103,1.0,3.0,80,0.00,,,0.00,Wunderground v.1.15,2013-04-22 09:15:00,
2013-04-22 05:20:00,46.1,40.6,30.24,WNW,296,1.0,1.0,81,0.00,,,0.00,Wunderground v.1.15,2013-04-22 09:20:00,
2013-04-22 05:30:00,45.8,40.3,30.24,WNW,295,1.0,2.0,81,0.00,,,0.00,Wunderground v.1.15,2013-04-22 09:30:00,
2013-04-22 05:35:00,45.8,40.3,30.24,West,269,1.0,3.0,81,0.00,,,0.00,Wunderground v.1.15,2013-04-22 09:35:00,
2013-04-22 05:50:00,45.6,40.4,30.25,NW,325,1.0,2.0,82,0.00,,,0.00,Wunderground v.1.15,2013-04-22 09:50:00,
2013-04-22 05:55:00,45.5,40.3,30.25,WNW,284,1.0,2.0,82,0.00,,,0.00,Wunderground v.1.15,2013-04-22 09:55:00,
2013-04-22 06:05:00,45.5,40.3,30.25,WNW,302,1.0,3.0,82,0.00,,,0.00,Wunderground v.1.15,2013-04-22 10:05:00,
2013-04-22 06:10:00,45.6,40.4,30.25,South,169,1.0,1.0,82,0.00,,,0.00,Wunderground v.1.15,2013-04-22 10:10:00,
2013-04-22 06:20:00,45.6,40.4,30.26,ENE,71,2.0,2.0,82,0.00,,,0.00,Wunderground v.1.15,2013-04-22 10:20:00,
2013-04-22 06:25:00,45.6,40.4,30.26,SW,224,2.0,2.0,82,0.00,,,0.00,Wunderground v.1.15,2013-04-22 10:25:00,
2013-04-22 06:35:00,45.6,40.7,30.25,West,276,1.0,5.0,83,0.00,,,0.00,Wunderground v.1.15,2013-04-22 10:35:00,
2013-04-22 06:40:00,45.5,40.6,30.25,NW,311,1.0,3.0,83,0.00,,,0.00,Wunderground v.1.15,2013-04-22 10:40:00,
2013-04-22 06:50:00,45.5,40.6,30.25,SSW,211,2.0,4.0,83,0.00,,,0.00,Wunderground v.1.15,2013-04-22 10:50:00,
2013-04-22 07:00:00,45.4,40.5,30.25,WNW,303,1.0,2.0,83,0.00,,,0.00,Wunderground v.1.15,2013-04-22 11:00:00,
2013-04-22 07:10:00,45.3,40.7,30.27,SE,131,2.0,2.0,84,0.00,,,0.00,Wunderground v.1.15,2013-04-22 11:10:00,
2013-04-22 07:20:00,45.4,40.8,30.27,SSE,159,1.0,1.0,84,0.00,,,0.00,Wunderground v.1.15,2013-04-22 11:20:00,
2013-04-22 07:30:00,45.5,40.9,30.26,West,260,1.0,2.0,84,0.00,,,0.00,Wunderground v.1.15,2013-04-22 11:30:00,
2013-04-22 07:40:00,45.6,41.0,30.26,ESE,121,1.0,3.0,84,0.00,,,0.00,Wunderground v.1.15,2013-04-22 11:40:00,
2013-04-22 07:50:00,45.7,41.1,30.25,NE,41,1.0,1.0,84,0.00,,,0.00,Wunderground v.1.15,2013-04-22 11:50:00,
2013-04-22 08:00:00,45.8,41.2,30.25,East,89,1.0,1.0,84,0.00,,,0.00,Wunderground v.1.15,2013-04-22 12:00:00,
2013-04-22 08:10:00,46.0,41.4,30.25,ENE,61,1.0,1.0,84,0.00,,,0.00,Wunderground v.1.15,2013-04-22 12:10:00,
2013-04-22 08:15:00,46.1,41.5,30.25,West,277,1.0,1.0,84,0.00,,,0.00,Wunderground v.1.15,2013-04-22 12:15:00,
2013-04-22 08:25:00,46.3,41.4,30.25,WNW,292,2.0,4.0,83,0.00,,,0.00,Wunderground v.1.15,2013-04-22 12:25:00,
2013-04-22 08:35:00,47.0,42.1,30.26,SSE,167,2.0,2.0,83,0.00,,,0.00,Wunderground v.1.15,2013-04-22 12:35:00,
2013-04-22 08:45:00,47.8,42.6,30.25,NNE,19,1.0,2.0,82,0.00,,,0.00,Wunderground v.1.15,2013-04-22 12:45:00,
2013-04-22 08:50:00,48.2,42.6,30.26,NW,304,1.0,1.0,81,0.00,,,0.00,Wunderground v.1.15,2013-04-22 12:50:00,
2013-04-22 09:00:00,49.1,42.9,30.26,NW,319,1.0,2.0,79,0.00,,,0.00,Wunderground v.1.15,2013-04-22 13:00:00,
2013-04-22 09:10:00,49.5,43.6,30.26,SSE,148,2.0,2.0,80,0.00,,,0.00,Wunderground v.1.15,2013-04-22 13:10:00,
2013-04-22 09:20:00,49.7,43.1,30.27,WSW,246,2.0,2.0,78,0.00,,,0.00,Wunderground v.1.15,2013-04-22 13:20:00,
2013-04-22 09:25:00,49.7,43.1,30.27,West,270,1.0,2.0,78,0.00,,,0.00,Wunderground v.1.15,2013-04-22 13:25:00,
2013-04-22 09:35:00,49.7,43.1,30.27,West,281,1.0,2.0,78,0.00,,,0.00,Wunderground v.1.15,2013-04-22 13:35:00,
2013-04-22 09:40:00,49.8,43.5,30.27,NNE,23,2.0,2.0,79,0.00,,,0.00,Wunderground v.1.15,2013-04-22 13:40:00,
2013-04-22 09:50:00,50.0,43.4,30.26,NNE,14,1.0,1.0,78,0.00,,,0.00,Wunderground v.1.15,2013-04-22 13:50:00,
2013-04-22 10:00:00,50.2,43.6,30.26,WSW,240,2.0,2.0,78,0.00,,,0.00,Wunderground v.1.15,2013-04-22 14:00:00,
2013-04-22 10:05:00,50.4,43.8,30.26,NW,319,1.0,2.0,78,0.00,,,0.00,Wunderground v.1.15,2013-04-22 14:05:00,
2013-04-22 10:15:00,50.9,43.9,30.26,SE,134,2.0,2.0,77,0.00,,,0.00,Wunderground v.1.15,2013-04-22 14:15:00,
2013-04-22 10:25:00,51.9,44.2,30.26,NNW,339,1.0,2.0,75,0.00,,,0.00,Wunderground v.1.15,2013-04-22 14:25:00,
2013-04-22 10:35:00,52.1,44.8,30.26,NE,56,2.0,2.0,76,0.00,,,0.00,Wunderground v.1.15,2013-04-22 14:35:00,
2013-04-22 10:40:00,52.7,45.0,30.26,SSW,206,2.0,2.0,75,0.00,,,0.00,Wunderground v.1.15,2013-04-22 14:40:00,
2013-04-22 10:50:00,53.4,45.3,30.25,West,278,2.0,2.0,74,0.00,,,0.00,Wunderground v.1.15,2013-04-22 14:50:00,
2013-04-22 11:00:00,53.7,45.2,30.25,WSW,242,2.0,2.0,73,0.00,,,0.00,Wunderground v.1.15,2013-04-22 15:00:00,
2013-04-22 11:05:00,53.7,45.6,30.25,South,173,1.0,2.0,74,0.00,,,0.00,Wunderground v.1.15,2013-04-22 15:05:00,
2013-04-22 11:15:00,55.0,46.5,30.24,WNW,293,2.0,4.0,73,0.00,,,0.00,Wunderground v.1.15,2013-04-22 15:15:00,
2013-04-22 11:20:00,55.7,46.8,30.25,NW,316,2.0,3.0,72,0.00,,,0.00,Wunderground v.1.15,2013-04-22 15:20:00,
2013-04-22 11:30:00,57.0,47.3,30.25,North,5,2.0,2.0,70,0.00,,,0.00,Wunderground v.1.15,2013-04-22 15:30:00,
2013-04-22 11:40:00,58.2,47.7,30.24,West,269,1.0,3.0,68,0.00,,,0.00,Wunderground v.1.15,2013-04-22 15:40:00,
2013-04-22 11:50:00,59.0,48.4,30.24,NW,313,2.0,2.0,68,0.00,,,0.00,Wunderground v.1.15,2013-04-22 15:50:00,
2013-04-22 11:55:00,59.6,48.6,30.24,WNW,296,2.0,5.0,67,0.00,,,0.00,Wunderground v.1.15,2013-04-22 15:55:00,
2013-04-22 12:00:00,60.2,48.8,30.25,NNE,27,3.0,3.0,66,0.00,,,0.00,Wunderground v.1.15,2013-04-22 16:00:00,
2013-04-22 12:10:00,60.8,49.0,30.24,NE,47,2.0,2.0,65,0.00,,,0.00,Wunderground v.1.15,2013-04-22 16:10:00,
2013-04-22 12:20:00,60.9,49.5,30.23,NW,310,2.0,3.0,66,0.00,,,0.00,Wunderground v.1.15,2013-04-22 16:20:00,
2013-04-22 12:30:00,61.9,50.4,30.22,WNW,286,2.0,2.0,66,0.00,,,0.00,Wunderground v.1.15,2013-04-22 16:30:00,
2013-04-22 12:40:00,63.3,50.5,30.21,ESE,121,2.0,2.0,63,0.00,,,0.00,Wunderground v.1.15,2013-04-22 16:40:00,
2013-04-22 12:45:00,63.7,50.4,30.22,NE,40,2.0,2.0,62,0.00,,,0.00,Wunderground v.1.15,2013-04-22 16:45:00,
2013-04-22 12:55:00,64.1,50.8,30.22,West,276,2.0,4.0,62,0.00,,,0.00,Wunderground v.1.15,2013-04-22 16:55:00,
2013-04-22 13:05:00,64.8,51.5,30.21,WNW,283,2.0,3.0,62,0.00,,,0.00,Wunderground v.1.15,2013-04-22 17:05:00,
2013-04-22 13:15:00,64.8,51.0,30.21,NW,311,2.0,3.0,61,0.00,,,0.00,Wunderground v.1.15,2013-04-22 17:15:00,
2013-04-22 13:20:00,64.6,51.3,30.20,ENE,71,2.0,3.0,62,0.00,,,0.00,Wunderground v.1.15,2013-04-22 17:20:00,
2013-04-22 13:30:00,65.4,52.0,30.20,NW,306,2.0,2.0,62,0.00,,,0.00,Wunderground v.1.15,2013-04-22 17:30:00,
2013-04-22 13:40:00,65.4,51.6,30.20,NW,325,2.0,3.0,61,0.00,,,0.00,Wunderground v.1.15,2013-04-22 17:40:00,
2013-04-22 13:50:00,66.3,52.0,30.19,NNE,30,2.0,4.0,60,0.00,,,0.00,Wunderground v.1.15,2013-04-22 17:50:00,
2013-04-22 13:55:00,66.2,51.4,30.19,NW,316,2.0,4.0,59,0.00,,,0.00,Wunderground v.1.15,2013-04-22 17:55:00,
2013-04-22 14:05:00,65.7,51.9,30.19,NNE,32,2.0,3.0,61,0.00,,,0.00,Wunderground v.1.15,2013-04-22 18:05:00,
2013-04-22 14:15:00,66.0,51.7,30.18,NNW,328,2.0,3.0,60,0.00,,,0.00,Wunderground v.1.15,2013-04-22 18:15:00,
2013-04-22 14:25:00,65.8,52.0,30.18,NNE,24,2.0,2.0,61,0.00,,,0.00,Wunderground v.1.15,2013-04-22 18:25:00,
2013-04-22 14:35:00,66.4,51.6,30.17,WSW,248,2.0,3.0,59,0.00,,,0.00,Wunderground v.1.15,2013-04-22 18:35:00,
2013-04-22 14:40:00,66.4,52.1,30.17,West,264,2.0,2.0,60,0.00,,,0.00,Wunderground v.1.15,2013-04-22 18:40:00,
2013-04-22 14:50:00,66.3,51.1,30.16,West,262,2.0,6.0,58,0.00,,,0.00,Wunderground v.1.15,2013-04-22 18:50:00,
2013-04-22 15:00:00,65.8,51.5,30.15,NW,304,2.0,3.0,60,0.00,,,0.00,Wunderground v.1.15,2013-04-22 19:00:00,
2013-04-22 15:10:00,66.1,51.8,30.15,NNW,332,1.0,1.0,60,0.00,,,0.00,Wunderground v.1.15,2013-04-22 19:10:00,
2013-04-22 15:20:00,66.8,52.5,30.15,NW,317,2.0,5.0,60,0.00,,,0.00,Wunderground v.1.15,2013-04-22 19:20:00,
2013-04-22 15:30:00,67.6,52.8,30.14,NE,55,2.0,2.0,59,0.00,,,0.00,Wunderground v.1.15,2013-04-22 19:30:00,
2013-04-22 15:40:00,67.8,52.0,30.14,WNW,294,2.0,2.0,57,0.00,,,0.00,Wunderground v.1.15,2013-04-22 19:40:00,
2013-04-22 15:45:00,67.9,52.1,30.14,NNE,22,2.0,2.0,57,0.00,,,0.00,Wunderground v.1.15,2013-04-22 19:45:00,
2013-04-22 15:55:00,68.3,52.0,30.13,SE,126,2.0,2.0,56,0.00,,,0.00,Wunderground v.1.15,2013-04-22 19:55:00,
2013-04-22 16:05:00,68.3,52.5,30.13,SW,236,2.0,2.0,57,0.00,,,0.00,Wunderground v.1.15,2013-04-22 20:05:00,
2013-04-22 16:15:00,68.9,52.6,30.13,WNW,287,2.0,2.0,56,0.00,,,0.00,Wunderground v.1.15,2013-04-22 20:15:00,
2013-04-22 16:25:00,68.6,52.3,30.13,NNW,332,2.0,5.0,56,0.00,,,0.00,Wunderground v.1.15,2013-04-22 20:25:00,
2013-04-22 16:35:00,68.1,51.3,30.12,West,267,3.0,4.0,55,0.00,,,0.00,Wunderground v.1.15,2013-04-22 20:35:00,
2013-04-22 16:45:00,68.6,51.3,30.12,NW,317,2.0,3.0,54,0.00,,,0.00,Wunderground v.1.15,2013-04-22 20:45:00,
2013-04-22 16:55:00,68.9,52.6,30.12,NW,320,3.0,3.0,56,0.00,,,0.00,Wunderground v.1.15,2013-04-22 20:55:00,
2013-04-22 17:05:00,69.2,51.8,30.11,NNW,328,2.0,4.0,54,0.00,,,0.00,Wunderground v.1.15,2013-04-22 21:05:00,
2013-04-22 17:15:00,69.4,52.5,30.12,NNE,27,2.0,2.0,55,0.00,,,0.00,Wunderground v.1.15,2013-04-22 21:15:00,
2013-04-22 17:20:00,69.4,51.5,30.12,NW,325,2.0,2.0,53,0.00,,,0.00,Wunderground v.1.15,2013-04-22 21:20:00,
2013-04-22 17:30:00,69.5,52.6,30.12,NW,306,2.0,2.0,55,0.00,,,0.00,Wunderground v.1.15,2013-04-22 21:30:00,
2013-04-22 17:40:00,68.6,52.3,30.11,WSW,251,2.0,2.0,56,0.00,,,0.00,Wunderground v.1.15,2013-04-22 21:40:00,
2013-04-22 17:50:00,68.8,51.5,30.12,WNW,291,2.0,2.0,54,0.00,,,0.00,Wunderground v.1.15,2013-04-22 21:50:00,
2013-04-22 18:00:00,68.1,51.8,30.11,NNW,330,1.0,1.0,56,0.00,,,0.00,Wunderground v.1.15,2013-04-22 22:00:00,
2013-04-22 18:10:00,67.8,51.0,30.12,NE,55,2.0,2.0,55,0.00,,,0.00,Wunderground v.1.15,2013-04-22 22:10:00,
2013-04-22 18:20:00,67.9,50.6,30.11,WNW,300,2.0,3.0,54,0.00,,,0.00,Wunderground v.1.15,2013-04-22 22:20:00,
2013-04-22 18:25:00,67.8,51.0,30.12,WSW,247,2.0,5.0,55,0.00,,,0.00,Wunderground v.1.15,2013-04-22 22:25:00,
2013-04-22 18:35:00,66.8,50.6,30.12,NNE,28,2.0,2.0,56,0.00,,,0.00,Wunderground v.1.15,2013-04-22 22:35:00,
2013-04-22 18:40:00,66.5,50.3,30.12,SW,231,2.0,3.0,56,0.00,,,0.00,Wunderground v.1.15,2013-04-22 22:40:00,
2013-04-22 18:50:00,65.7,50.0,30.12,North,355,2.0,2.0,57,0.00,,,0.00,Wunderground v.1.15,2013-04-22 22:50:00,
2013-04-22 18:55:00,65.0,49.9,30.12,West,281,2.0,5.0,58,0.00,,,0.00,Wunderground v.1.15,2013-04-22 22:55:00,
2013-04-22 19:00:00,64.3,49.7,30.12,NE,34,2.0,2.0,59,0.00,,,0.00,Wunderground v.1.15,2013-04-22 23:00:00,
2013-04-22 19:10:00,63.5,49.4,30.13,NNE,20,2.0,2.0,60,0.00,,,0.00,Wunderground v.1.15,2013-04-22 23:10:00,
2013-04-22 19:15:00,63.2,49.5,30.13,NNE,29,1.0,2.0,61,0.00,,,0.00,Wunderground v.1.15,2013-04-22 23:15:00,
2013-04-22 19:25:00,62.6,49.4,30.13,WSW,253,1.0,1.0,62,0.00,,,0.00,Wunderground v.1.15,2013-04-22 23:25:00,
2013-04-22 19:30:00,62.2,49.0,30.13,NNW,340,1.0,1.0,62,0.00,,,0.00,Wunderground v.1.15,2013-04-22 23:30:00,
2013-04-22 19:40:00,61.6,48.9,30.13,SSW,198,1.0,1.0,63,0.00,,,0.00,Wunderground v.1.15,2013-04-22 23:40:00,
2013-04-22 19:50:00,60.7,48.4,30.13,West,278,2.0,2.0,64,0.00,,,0.00,Wunderground v.1.15,2013-04-22 23:50:00,
2013-04-22 20:00:00,60.1,48.3,30.14,West,277,1.0,1.0,65,0.00,,,0.00,Wunderground v.1.15,2013-04-23 00:00:00,
2013-04-22 20:10:00,59.9,48.5,30.14,NE,40,1.0,1.0,66,0.00,,,0.00,Wunderground v.1.15,2013-04-23 00:10:00,
2013-04-22 20:20:00,59.6,48.6,30.14,ESE,105,1.0,1.0,67,0.00,,,0.00,Wunderground v.1.15,2013-04-23 00:20:00,
2013-04-22 20:30:00,59.3,48.3,30.14,SSE,154,0.0,0.0,67,0.00,,,0.00,Wunderground v.1.15,2013-04-23 00:30:00,
2013-04-22 20:40:00,58.9,48.7,30.14,SSW,200,0.0,1.0,69,0.00,,,0.00,Wunderground v.1.15,2013-04-23 00:40:00,
2013-04-22 20:45:00,58.6,48.5,30.15,SW,225,1.0,1.0,69,0.00,,,0.00,Wunderground v.1.15,2013-04-23 00:45:00,
2013-04-22 20:55:00,58.3,48.2,30.15,WSW,241,0.0,2.0,69,0.00,,,0.00,Wunderground v.1.15,2013-04-23 00:55:00,
2013-04-22 21:05:00,58.0,48.3,30.15,NNW,328,1.0,1.0,70,0.00,,,0.00,Wunderground v.1.15,2013-04-23 01:05:00,
2013-04-22 21:10:00,57.9,48.2,30.15,NW,308,0.0,0.0,70,0.00,,,0.00,Wunderground v.1.15,2013-04-23 01:10:00,
2013-04-22 21:20:00,57.6,47.9,30.15,West,268,0.0,1.0,70,0.00,,,0.00,Wunderground v.1.15,2013-04-23 01:20:00,
2013-04-22 21:30:00,57.5,48.5,30.15,ENE,59,1.0,1.0,72,0.00,,,0.00,Wunderground v.1.15,2013-04-23 01:30:00,
2013-04-22 21:40:00,57.5,48.5,30.15,SSE,165,1.0,2.0,72,0.00,,,0.00,Wunderground v.1.15,2013-04-23 01:40:00,
2013-04-22 21:50:00,57.7,49.1,30.15,NNE,30,2.0,2.0,73,0.00,,,0.00,Wunderground v.1.15,2013-04-23 01:50:00,
2013-04-22 22:00:00,57.8,49.2,30.16,South,175,1.0,1.0,73,0.00,,,0.00,Wunderground v.1.15,2013-04-23 02:00:00,
2013-04-22 22:10:00,57.7,49.1,30.16,ENE,78,1.0,1.0,73,0.00,,,0.00,Wunderground v.1.15,2013-04-23 02:10:00,
2013-04-22 22:20:00,57.7,49.1,30.16,NW,315,1.0,1.0,73,0.00,,,0.00,Wunderground v.1.15,2013-04-23 02:20:00,
2013-04-22 22:25:00,57.7,49.1,30.16,NW,307,1.0,1.0,73,0.00,,,0.00,Wunderground v.1.15,2013-04-23 02:25:00,
2013-04-22 22:35:00,57.6,49.0,30.16,SW,236,1.0,1.0,73,0.00,,,0.00,Wunderground v.1.15,2013-04-23 02:35:00,
2013-04-22 22:45:00,57.4,49.2,30.16,East,80,1.0,2.0,74,0.00,,,0.00,Wunderground v.1.15,2013-04-23 02:45:00,
2013-04-22 22:50:00,57.3,49.1,30.16,East,83,1.0,1.0,74,0.00,,,0.00,Wunderground v.1.15,2013-04-23 02:50:00,
2013-04-22 23:00:00,57.0,48.8,30.16,ESE,119,1.0,1.0,74,0.00,,,0.00,Wunderground v.1.15,2013-04-23 03:00:00,
2013-04-22 23:05:00,56.9,49.1,30.16,NNW,336,1.0,2.0,75,0.00,,,0.00,Wunderground v.1.15,2013-04-23 03:05:00,
2013-04-22 23:15:00,56.7,48.9,30.16,SW,226,1.0,5.0,75,0.00,,,0.00,Wunderground v.1.15,2013-04-23 03:15:00,
2013-04-22 23:20:00,56.5,48.7,30.16,NNW,329,2.0,2.0,75,0.00,,,0.00,Wunderground v.1.15,2013-04-23 03:20:00,
2013-04-22 23:30:00,56.2,48.4,30.16,NNE,17,2.0,5.0,75,0.00,,,0.00,Wunderground v.1.15,2013-04-23 03:30:00,
2013-04-22 23:40:00,56.0,48.5,30.16,West,270,2.0,2.0,76,0.00,,,0.00,Wunderground v.1.15,2013-04-23 03:40:00,
2013-04-22 23:50:00,55.9,48.4,30.15,NNW,343,2.0,2.0,76,0.00,,,0.00,Wunderground v.1.15,2013-04-23 03:50:00,